owner,sensor,date,latitude,longitude,vertical_datum,mass_concentration_of_oxygen_in_sea_water,qcFlag 
DISL,ioos:station:DISL:KATA:1,2019-08-01T00:30:00Z,30.2583,-88.2131,3.85,8.8,11111222 
DISL,ioos:station:DISL:KATA:1,2019-08-01T01:30:00Z,30.2583,-88.2131,3.855,9.04,11111222 
DISL,ioos:station:DISL:KATA:1,2019-08-01T02:30:00Z,30.2583,-88.2131,3.87,8.44,11111222 
DISL,ioos:station:DISL:KATA:1,2019-08-01T03:30:00Z,30.2583,-88.2131,3.911,8.07,11111222 
DISL,ioos:station:DISL:KATA:1,2019-08-01T04:30:00Z,30.2583,-88.2131,3.943,6.79,11111222 
DISL,ioos:station:DISL:KATA:1,2019-08-01T05:30:00Z,30.2583,-88.2131,4.002,7.45,11111222 
DISL,ioos:station:DISL:KATA:1,2019-08-01T06:30:00Z,30.2583,-88.2131,4.081,7.38,11111222 
DISL,ioos:station:DISL:KATA:1,2019-08-01T07:30:00Z,30.2583,-88.2131,4.138,7.42,11111222 
DISL,ioos:station:DISL:KATA:1,2019-08-01T08:30:00Z,30.2583,-88.2131,4.196,7.52,11111222 
DISL,ioos:station:DISL:KATA:1,2019-08-01T09:30:00Z,30.2583,-88.2131,4.252,7.71,11111222 
DISL,ioos:station:DISL:KATA:1,2019-08-01T10:30:00Z,30.2583,-88.2131,4.296,7.64,11111222 
DISL,ioos:station:DISL:KATA:1,2019-08-01T11:30:00Z,30.2583,-88.2131,4.339,7.26,11111222 
DISL,ioos:station:DISL:KATA:1,2019-08-01T12:30:00Z,30.2583,-88.2131,4.431,7.17,11111222 
DISL,ioos:station:DISL:KATA:1,2019-08-01T13:30:00Z,30.2583,-88.2131,4.489,6.56,11111222 
DISL,ioos:station:DISL:KATA:1,2019-08-01T14:30:00Z,30.2583,-88.2131,4.55,6.53,11111222 
DISL,ioos:station:DISL:KATA:1,2019-08-01T15:30:00Z,30.2583,-88.2131,4.569,6.56,11111222 
DISL,ioos:station:DISL:KATA:1,2019-08-01T16:30:00Z,30.2583,-88.2131,4.54,6.56,11111222 
DISL,ioos:station:DISL:KATA:1,2019-08-01T17:30:00Z,30.2583,-88.2131,4.475,6.63,11111222 
DISL,ioos:station:DISL:KATA:1,2019-08-01T18:30:00Z,30.2583,-88.2131,4.405,5.83,11111222 
DISL,ioos:station:DISL:KATA:1,2019-08-01T19:30:00Z,30.2583,-88.2131,4.358,6.69,11111222 
DISL,ioos:station:DISL:KATA:1,2019-08-01T20:30:00Z,30.2583,-88.2131,4.265,6.65,11111222 
DISL,ioos:station:DISL:KATA:1,2019-08-01T21:30:00Z,30.2583,-88.2131,4.16,6.71,11111222 
DISL,ioos:station:DISL:KATA:1,2019-08-01T22:30:00Z,30.2583,-88.2131,4.056,6.97,11111222 
DISL,ioos:station:DISL:KATA:1,2019-08-01T23:30:00Z,30.2583,-88.2131,3.947,7.34,11111222 
DISL,ioos:station:DISL:KATA:1,2019-08-02T00:30:00Z,30.2583,-88.2131,3.905,7.44,11111222 
DISL,ioos:station:DISL:KATA:1,2019-08-02T01:30:00Z,30.2583,-88.2131,3.89,7.53,11111222 
DISL,ioos:station:DISL:KATA:1,2019-08-02T02:30:00Z,30.2583,-88.2131,3.884,7.31,11111222 
DISL,ioos:station:DISL:KATA:1,2019-08-02T03:30:00Z,30.2583,-88.2131,3.884,7.12,11111222 
DISL,ioos:station:DISL:KATA:1,2019-08-02T04:30:00Z,30.2583,-88.2131,3.88,7.19,11111222 
DISL,ioos:station:DISL:KATA:1,2019-08-02T05:30:00Z,30.2583,-88.2131,3.922,7.18,11111222 
DISL,ioos:station:DISL:KATA:1,2019-08-02T06:30:00Z,30.2583,-88.2131,4.004,7.2,11111222 
DISL,ioos:station:DISL:KATA:1,2019-08-02T07:30:00Z,30.2583,-88.2131,4.081,6.97,11111222 
DISL,ioos:station:DISL:KATA:1,2019-08-02T08:30:00Z,30.2583,-88.2131,4.129,6.87,11111222 
DISL,ioos:station:DISL:KATA:1,2019-08-02T09:30:00Z,30.2583,-88.2131,4.192,6.63,11111222 
DISL,ioos:station:DISL:KATA:1,2019-08-02T10:30:00Z,30.2583,-88.2131,4.245,6.66,11111222 
DISL,ioos:station:DISL:KATA:1,2019-08-02T11:30:00Z,30.2583,-88.2131,4.317,6.63,11111222 
DISL,ioos:station:DISL:KATA:1,2019-08-02T12:30:00Z,30.2583,-88.2131,4.393,6.38,11111222 
DISL,ioos:station:DISL:KATA:1,2019-08-02T13:30:00Z,30.2583,-88.2131,4.485,6.09,11111222 
DISL,ioos:station:DISL:KATA:1,2019-08-02T14:30:00Z,30.2583,-88.2131,4.592,6.36,11111222 
DISL,ioos:station:DISL:KATA:1,2019-08-02T15:30:00Z,30.2583,-88.2131,4.585,6.36,11111222 
DISL,ioos:station:DISL:KATA:1,2019-08-02T16:30:00Z,30.2583,-88.2131,4.552,6.5,11111222 
DISL,ioos:station:DISL:KATA:1,2019-08-02T17:30:00Z,30.2583,-88.2131,4.526,6.56,11111222 
DISL,ioos:station:DISL:KATA:1,2019-08-02T18:30:00Z,30.2583,-88.2131,4.507,6.58,11111222 
DISL,ioos:station:DISL:KATA:1,2019-08-02T19:30:00Z,30.2583,-88.2131,4.469,6.52,11111222 
DISL,ioos:station:DISL:KATA:1,2019-08-02T20:30:00Z,30.2583,-88.2131,4.428,6.8,11111222 
DISL,ioos:station:DISL:KATA:1,2019-08-02T21:30:00Z,30.2583,-88.2131,4.221,6.99,11111222 
DISL,ioos:station:DISL:KATA:1,2019-08-02T22:30:00Z,30.2583,-88.2131,4.13,6.91,11111222 
DISL,ioos:station:DISL:KATA:1,2019-08-02T23:30:00Z,30.2583,-88.2131,4.041,7.09,11111222 
DISL,ioos:station:DISL:KATA:1,2019-08-03T00:30:00Z,30.2583,-88.2131,3.933,7.03,11111222 
DISL,ioos:station:DISL:KATA:1,2019-08-03T01:30:00Z,30.2583,-88.2131,3.892,6.81,11111222 
DISL,ioos:station:DISL:KATA:1,2019-08-03T02:30:00Z,30.2583,-88.2131,3.897,6.7,11111222 
DISL,ioos:station:DISL:KATA:1,2019-08-03T03:30:00Z,30.2583,-88.2131,3.93,6.66,11111222 
DISL,ioos:station:DISL:KATA:1,2019-08-03T04:30:00Z,30.2583,-88.2131,3.989,6.13,11111222 
DISL,ioos:station:DISL:KATA:1,2019-08-03T05:30:00Z,30.2583,-88.2131,4.021,6.17,11111222 
DISL,ioos:station:DISL:KATA:1,2019-08-03T06:30:00Z,30.2583,-88.2131,4.051,5.97,11111222 
DISL,ioos:station:DISL:KATA:1,2019-08-03T07:30:00Z,30.2583,-88.2131,4.11,6.07,11111222 
DISL,ioos:station:DISL:KATA:1,2019-08-03T08:30:00Z,30.2583,-88.2131,4.159,6.09,11111222 
DISL,ioos:station:DISL:KATA:1,2019-08-03T09:30:00Z,30.2583,-88.2131,4.212,6.04,11111222 
DISL,ioos:station:DISL:KATA:1,2019-08-03T10:30:00Z,30.2583,-88.2131,4.246,6.19,11111222 
DISL,ioos:station:DISL:KATA:1,2019-08-03T11:30:00Z,30.2583,-88.2131,4.283,6.05,11111222 
DISL,ioos:station:DISL:KATA:1,2019-08-03T12:30:00Z,30.2583,-88.2131,4.323,6.02,11111222 
DISL,ioos:station:DISL:KATA:1,2019-08-03T13:30:00Z,30.2583,-88.2131,4.368,5.86,11111222 
DISL,ioos:station:DISL:KATA:1,2019-08-03T14:30:00Z,30.2583,-88.2131,4.454,6.15,11111222 
DISL,ioos:station:DISL:KATA:1,2019-08-03T15:30:00Z,30.2583,-88.2131,4.5,6.24,11111222 
DISL,ioos:station:DISL:KATA:1,2019-08-03T16:30:00Z,30.2583,-88.2131,4.537,6.39,11111222 
DISL,ioos:station:DISL:KATA:1,2019-08-03T17:30:00Z,30.2583,-88.2131,4.523,6.63,11111222 
DISL,ioos:station:DISL:KATA:1,2019-08-03T18:30:00Z,30.2583,-88.2131,4.489,6.36,11111222 
DISL,ioos:station:DISL:KATA:1,2019-08-03T19:30:00Z,30.2583,-88.2131,4.446,6.82,11111222 
DISL,ioos:station:DISL:KATA:1,2019-08-03T20:30:00Z,30.2583,-88.2131,4.413,6.36,11111222 
DISL,ioos:station:DISL:KATA:1,2019-08-03T21:30:00Z,30.2583,-88.2131,4.355,6.46,11111222 
DISL,ioos:station:DISL:KATA:1,2019-08-03T22:30:00Z,30.2583,-88.2131,4.279,6.43,11111222 
DISL,ioos:station:DISL:KATA:1,2019-08-03T23:30:00Z,30.2583,-88.2131,4.178,6.33,11111222 
DISL,ioos:station:DISL:KATA:1,2019-08-04T00:30:00Z,30.2583,-88.2131,4.1,6.28,11111222 
DISL,ioos:station:DISL:KATA:1,2019-08-04T01:30:00Z,30.2583,-88.2131,4.052,6.31,11111222 
DISL,ioos:station:DISL:KATA:1,2019-08-04T02:30:00Z,30.2583,-88.2131,4.042,6.86,11111222 
DISL,ioos:station:DISL:KATA:1,2019-08-04T03:30:00Z,30.2583,-88.2131,4.069,7.11,11111222 
DISL,ioos:station:DISL:KATA:1,2019-08-04T04:30:00Z,30.2583,-88.2131,4.092,6.94,11111222 
DISL,ioos:station:DISL:KATA:1,2019-08-04T05:30:00Z,30.2583,-88.2131,4.109,6.27,11111222 
DISL,ioos:station:DISL:KATA:1,2019-08-04T06:30:00Z,30.2583,-88.2131,4.116,6.41,11111222 
DISL,ioos:station:DISL:KATA:1,2019-08-04T07:30:00Z,30.2583,-88.2131,4.136,5.94,11111222 
DISL,ioos:station:DISL:KATA:1,2019-08-04T08:30:00Z,30.2583,-88.2131,4.215,6.25,11111222 
DISL,ioos:station:DISL:KATA:1,2019-08-04T09:30:00Z,30.2583,-88.2131,4.273,6.33,11111222 
DISL,ioos:station:DISL:KATA:1,2019-08-04T10:30:00Z,30.2583,-88.2131,4.295,6.35,11111222 
DISL,ioos:station:DISL:KATA:1,2019-08-04T11:30:00Z,30.2583,-88.2131,4.264,6.32,11111222 
DISL,ioos:station:DISL:KATA:1,2019-08-04T12:30:00Z,30.2583,-88.2131,4.263,6.37,11111222 
DISL,ioos:station:DISL:KATA:1,2019-08-04T13:30:00Z,30.2583,-88.2131,4.288,6.1,11111222 
DISL,ioos:station:DISL:KATA:1,2019-08-04T14:30:00Z,30.2583,-88.2131,4.313,6.13,11111222 
DISL,ioos:station:DISL:KATA:1,2019-08-04T15:30:00Z,30.2583,-88.2131,4.345,6.0,11111222 
DISL,ioos:station:DISL:KATA:1,2019-08-04T16:30:00Z,30.2583,-88.2131,4.359,5.77,11111222 
DISL,ioos:station:DISL:KATA:1,2019-08-04T17:30:00Z,30.2583,-88.2131,4.398,6.2,11111222 
DISL,ioos:station:DISL:KATA:1,2019-08-04T18:30:00Z,30.2583,-88.2131,4.407,5.98,11111222 
DISL,ioos:station:DISL:KATA:1,2019-08-04T19:30:00Z,30.2583,-88.2131,4.39,5.78,11111222 
DISL,ioos:station:DISL:KATA:1,2019-08-04T20:30:00Z,30.2583,-88.2131,4.346,5.21,11111222 
DISL,ioos:station:DISL:KATA:1,2019-08-04T21:30:00Z,30.2583,-88.2131,4.327,5.49,11111222 
DISL,ioos:station:DISL:KATA:1,2019-08-04T22:30:00Z,30.2583,-88.2131,4.303,5.33,11111222 
DISL,ioos:station:DISL:KATA:1,2019-08-04T23:30:00Z,30.2583,-88.2131,4.266,5.15,11111222 
DISL,ioos:station:DISL:KATA:1,2019-08-05T00:30:00Z,30.2583,-88.2131,4.224,5.36,11111222 
DISL,ioos:station:DISL:KATA:1,2019-08-05T01:30:00Z,30.2583,-88.2131,4.172,6.36,11111222 
DISL,ioos:station:DISL:KATA:1,2019-08-05T02:30:00Z,30.2583,-88.2131,4.142,7.26,11111222 
DISL,ioos:station:DISL:KATA:1,2019-08-05T03:30:00Z,30.2583,-88.2131,4.126,6.94,11111222 
DISL,ioos:station:DISL:KATA:1,2019-08-05T04:30:00Z,30.2583,-88.2131,4.161,6.94,11111222 
DISL,ioos:station:DISL:KATA:1,2019-08-05T05:30:00Z,30.2583,-88.2131,4.257,6.37,11111222 
DISL,ioos:station:DISL:KATA:1,2019-08-05T06:30:00Z,30.2583,-88.2131,4.19,5.98,11111222 
DISL,ioos:station:DISL:KATA:1,2019-08-05T07:30:00Z,30.2583,-88.2131,4.175,6.06,11111222 
DISL,ioos:station:DISL:KATA:1,2019-08-05T08:30:00Z,30.2583,-88.2131,4.2,6.18,11111222 
DISL,ioos:station:DISL:KATA:1,2019-08-05T09:30:00Z,30.2583,-88.2131,4.278,5.37,11111222 
DISL,ioos:station:DISL:KATA:1,2019-08-05T10:30:00Z,30.2583,-88.2131,4.437,4.28,11111222 
DISL,ioos:station:DISL:KATA:1,2019-08-05T11:30:00Z,30.2583,-88.2131,4.363,4.42,11111222 
DISL,ioos:station:DISL:KATA:1,2019-08-05T12:30:00Z,30.2583,-88.2131,4.227,5.41,11111222 
DISL,ioos:station:DISL:KATA:1,2019-08-05T13:30:00Z,30.2583,-88.2131,4.215,5.67,11111222 
DISL,ioos:station:DISL:KATA:1,2019-08-05T14:30:00Z,30.2583,-88.2131,4.223,5.62,11111222 
DISL,ioos:station:DISL:KATA:1,2019-08-05T15:30:00Z,30.2583,-88.2131,4.299,5.04,11111222 
DISL,ioos:station:DISL:KATA:1,2019-08-05T16:30:00Z,30.2583,-88.2131,4.313,4.48,11111222 
DISL,ioos:station:DISL:KATA:1,2019-08-05T17:30:00Z,30.2583,-88.2131,4.259,5.02,11111222 
DISL,ioos:station:DISL:KATA:1,2019-08-05T18:30:00Z,30.2583,-88.2131,4.27,5.14,11111222 
DISL,ioos:station:DISL:KATA:1,2019-08-05T19:30:00Z,30.2583,-88.2131,4.286,5.75,11111222 
DISL,ioos:station:DISL:KATA:1,2019-08-05T20:30:00Z,30.2583,-88.2131,4.287,5.65,11111222 
DISL,ioos:station:DISL:KATA:1,2019-08-05T21:30:00Z,30.2583,-88.2131,4.285,6.5,11111222 
DISL,ioos:station:DISL:KATA:1,2019-08-05T22:30:00Z,30.2583,-88.2131,4.281,6.05,11111222 
DISL,ioos:station:DISL:KATA:1,2019-08-05T23:30:00Z,30.2583,-88.2131,4.245,5.29,11111222 
DISL,ioos:station:DISL:KATA:1,2019-08-06T00:30:00Z,30.2583,-88.2131,4.203,5.59,11111222 
DISL,ioos:station:DISL:KATA:1,2019-08-06T01:30:00Z,30.2583,-88.2131,4.192,6.31,11111222 
DISL,ioos:station:DISL:KATA:1,2019-08-06T02:30:00Z,30.2583,-88.2131,4.174,5.9,11111222 
DISL,ioos:station:DISL:KATA:1,2019-08-06T03:30:00Z,30.2583,-88.2131,4.168,6.16,11111222 
DISL,ioos:station:DISL:KATA:1,2019-08-06T04:30:00Z,30.2583,-88.2131,4.176,5.74,11111222 
DISL,ioos:station:DISL:KATA:1,2019-08-06T05:30:00Z,30.2583,-88.2131,4.226,5.94,11111222 
DISL,ioos:station:DISL:KATA:1,2019-08-06T06:30:00Z,30.2583,-88.2131,4.257,5.9,11111222 
DISL,ioos:station:DISL:KATA:1,2019-08-06T07:30:00Z,30.2583,-88.2131,4.284,5.8,11111222 
DISL,ioos:station:DISL:KATA:1,2019-08-06T08:30:00Z,30.2583,-88.2131,4.301,5.69,11111222 
DISL,ioos:station:DISL:KATA:1,2019-08-06T09:30:00Z,30.2583,-88.2131,4.327,5.85,11111222 
DISL,ioos:station:DISL:KATA:1,2019-08-06T10:30:00Z,30.2583,-88.2131,4.316,5.99,11111222 
DISL,ioos:station:DISL:KATA:1,2019-08-06T11:30:00Z,30.2583,-88.2131,4.29,5.83,11111222 
DISL,ioos:station:DISL:KATA:1,2019-08-06T12:30:00Z,30.2583,-88.2131,4.234,5.82,11111222 
DISL,ioos:station:DISL:KATA:1,2019-08-06T13:30:00Z,30.2583,-88.2131,4.183,5.77,11111222 
DISL,ioos:station:DISL:KATA:1,2019-08-06T14:30:00Z,30.2583,-88.2131,4.167,5.93,11111222 
DISL,ioos:station:DISL:KATA:1,2019-08-06T15:30:00Z,30.2583,-88.2131,4.123,5.71,11111222 
DISL,ioos:station:DISL:KATA:1,2019-08-06T16:30:00Z,30.2583,-88.2131,4.133,5.6,11111222 
DISL,ioos:station:DISL:KATA:1,2019-08-06T17:30:00Z,30.2583,-88.2131,4.149,5.5,11111222 
DISL,ioos:station:DISL:KATA:1,2019-08-06T18:30:00Z,30.2583,-88.2131,4.153,5.69,11111222 
DISL,ioos:station:DISL:KATA:1,2019-08-06T19:30:00Z,30.2583,-88.2131,4.149,5.92,11111222 
DISL,ioos:station:DISL:KATA:1,2019-08-06T20:30:00Z,30.2583,-88.2131,4.127,5.43,11111222 
DISL,ioos:station:DISL:KATA:1,2019-08-06T21:30:00Z,30.2583,-88.2131,4.137,5.56,11111222 
DISL,ioos:station:DISL:KATA:1,2019-08-06T22:30:00Z,30.2583,-88.2131,4.186,6.91,11111222 
DISL,ioos:station:DISL:KATA:1,2019-08-06T23:30:00Z,30.2583,-88.2131,4.238,6.88,11111222 
DISL,ioos:station:DISL:KATA:1,2019-08-07T00:30:00Z,30.2583,-88.2131,4.236,6.74,11111222 
DISL,ioos:station:DISL:KATA:1,2019-08-07T01:30:00Z,30.2583,-88.2131,4.221,6.58,11111222 
DISL,ioos:station:DISL:KATA:1,2019-08-07T02:30:00Z,30.2583,-88.2131,4.159,6.28,11111222 
DISL,ioos:station:DISL:KATA:1,2019-08-07T03:30:00Z,30.2583,-88.2131,4.182,5.78,11111222 
DISL,ioos:station:DISL:KATA:1,2019-08-07T04:30:00Z,30.2583,-88.2131,4.227,6.16,11111222 
DISL,ioos:station:DISL:KATA:1,2019-08-07T05:30:00Z,30.2583,-88.2131,4.256,5.66,11111222 
DISL,ioos:station:DISL:KATA:1,2019-08-07T06:30:00Z,30.2583,-88.2131,4.283,5.84,11111222 
DISL,ioos:station:DISL:KATA:1,2019-08-07T07:30:00Z,30.2583,-88.2131,4.309,5.73,11111222 
DISL,ioos:station:DISL:KATA:1,2019-08-07T08:30:00Z,30.2583,-88.2131,4.315,6.06,11111222 
DISL,ioos:station:DISL:KATA:1,2019-08-07T09:30:00Z,30.2583,-88.2131,4.303,6.23,11111222 
DISL,ioos:station:DISL:KATA:1,2019-08-07T10:30:00Z,30.2583,-88.2131,4.291,5.96,11111222 
DISL,ioos:station:DISL:KATA:1,2019-08-07T11:30:00Z,30.2583,-88.2131,4.294,5.87,11111222 
DISL,ioos:station:DISL:KATA:1,2019-08-07T12:30:00Z,30.2583,-88.2131,4.272,5.27,11111222 
DISL,ioos:station:DISL:KATA:1,2019-08-07T13:30:00Z,30.2583,-88.2131,4.223,5.97,11111222 
DISL,ioos:station:DISL:KATA:1,2019-08-07T14:30:00Z,30.2583,-88.2131,4.169,6.3,11111222 
DISL,ioos:station:DISL:KATA:1,2019-08-07T15:30:00Z,30.2583,-88.2131,4.144,6.26,11111222 
DISL,ioos:station:DISL:KATA:1,2019-08-07T16:30:00Z,30.2583,-88.2131,4.127,6.44,11111222 
DISL,ioos:station:DISL:KATA:1,2019-08-07T17:30:00Z,30.2583,-88.2131,4.096,6.45,11111222 
DISL,ioos:station:DISL:KATA:1,2019-08-07T18:30:00Z,30.2583,-88.2131,4.05,6.71,11111222 
DISL,ioos:station:DISL:KATA:1,2019-08-07T19:30:00Z,30.2583,-88.2131,4.041,6.08,11111222 
DISL,ioos:station:DISL:KATA:1,2019-08-07T20:30:00Z,30.2583,-88.2131,4.053,5.98,11111222 
DISL,ioos:station:DISL:KATA:1,2019-08-07T21:30:00Z,30.2583,-88.2131,4.057,5.73,11111222 
DISL,ioos:station:DISL:KATA:1,2019-08-07T22:30:00Z,30.2583,-88.2131,4.045,6.54,11111222 
DISL,ioos:station:DISL:KATA:1,2019-08-07T23:30:00Z,30.2583,-88.2131,4.107,6.98,11111222 
DISL,ioos:station:DISL:KATA:1,2019-08-08T00:30:00Z,30.2583,-88.2131,4.097,6.78,11111222 
DISL,ioos:station:DISL:KATA:1,2019-08-08T01:30:00Z,30.2583,-88.2131,4.126,6.71,11111222 
DISL,ioos:station:DISL:KATA:1,2019-08-08T02:30:00Z,30.2583,-88.2131,4.137,6.46,11111222 
DISL,ioos:station:DISL:KATA:1,2019-08-08T03:30:00Z,30.2583,-88.2131,4.149,6.22,11111222 
DISL,ioos:station:DISL:KATA:1,2019-08-08T04:30:00Z,30.2583,-88.2131,4.179,6.16,11111222 
DISL,ioos:station:DISL:KATA:1,2019-08-08T05:30:00Z,30.2583,-88.2131,4.219,6.33,11111222 
DISL,ioos:station:DISL:KATA:1,2019-08-08T06:30:00Z,30.2583,-88.2131,4.268,6.25,11111222 
DISL,ioos:station:DISL:KATA:1,2019-08-08T07:30:00Z,30.2583,-88.2131,4.3,6.15,11111222 
DISL,ioos:station:DISL:KATA:1,2019-08-08T08:30:00Z,30.2583,-88.2131,4.359,6.18,11111222 
DISL,ioos:station:DISL:KATA:1,2019-08-08T09:30:00Z,30.2583,-88.2131,4.358,6.07,11111222 
DISL,ioos:station:DISL:KATA:1,2019-08-08T10:30:00Z,30.2583,-88.2131,4.32,6.03,11111222 
DISL,ioos:station:DISL:KATA:1,2019-08-08T11:30:00Z,30.2583,-88.2131,4.293,5.95,11111222 
DISL,ioos:station:DISL:KATA:1,2019-08-08T12:30:00Z,30.2583,-88.2131,4.291,5.77,11111222 
DISL,ioos:station:DISL:KATA:1,2019-08-08T13:30:00Z,30.2583,-88.2131,4.264,5.62,11111222 
DISL,ioos:station:DISL:KATA:1,2019-08-08T14:30:00Z,30.2583,-88.2131,4.211,5.98,11111222 
DISL,ioos:station:DISL:KATA:1,2019-08-08T15:30:00Z,30.2583,-88.2131,4.129,6.16,11111222 
DISL,ioos:station:DISL:KATA:1,2019-08-08T16:30:00Z,30.2583,-88.2131,4.061,6.23,11111222 
DISL,ioos:station:DISL:KATA:1,2019-08-08T17:30:00Z,30.2583,-88.2131,4.004,6.36,11111222 
DISL,ioos:station:DISL:KATA:1,2019-08-08T18:30:00Z,30.2583,-88.2131,3.971,6.54,11111222 
DISL,ioos:station:DISL:KATA:1,2019-08-08T19:30:00Z,30.2583,-88.2131,3.939,6.75,11111222 
DISL,ioos:station:DISL:KATA:1,2019-08-08T20:30:00Z,30.2583,-88.2131,3.922,6.51,11111222 
DISL,ioos:station:DISL:KATA:1,2019-08-08T21:30:00Z,30.2583,-88.2131,3.889,6.27,11111222 
DISL,ioos:station:DISL:KATA:1,2019-08-08T22:30:00Z,30.2583,-88.2131,3.923,6.23,11111222 
DISL,ioos:station:DISL:KATA:1,2019-08-08T23:30:00Z,30.2583,-88.2131,3.988,7.07,11111222 
DISL,ioos:station:DISL:KATA:1,2019-08-09T00:30:00Z,30.2583,-88.2131,4.031,7.05,11111222 
DISL,ioos:station:DISL:KATA:1,2019-08-09T01:30:00Z,30.2583,-88.2131,4.041,6.94,11111222 
DISL,ioos:station:DISL:KATA:1,2019-08-09T02:30:00Z,30.2583,-88.2131,4.058,6.7,11111222 
DISL,ioos:station:DISL:KATA:1,2019-08-09T03:30:00Z,30.2583,-88.2131,4.089,6.83,11111222 
DISL,ioos:station:DISL:KATA:1,2019-08-09T04:30:00Z,30.2583,-88.2131,4.13,6.73,11111222 
DISL,ioos:station:DISL:KATA:1,2019-08-09T05:30:00Z,30.2583,-88.2131,4.175,6.47,11111222 
DISL,ioos:station:DISL:KATA:1,2019-08-09T06:30:00Z,30.2583,-88.2131,4.224,6.61,11111222 
DISL,ioos:station:DISL:KATA:1,2019-08-09T07:30:00Z,30.2583,-88.2131,4.299,6.6,11111222 
DISL,ioos:station:DISL:KATA:1,2019-08-09T08:30:00Z,30.2583,-88.2131,4.354,6.62,11111222 
DISL,ioos:station:DISL:KATA:1,2019-08-09T09:30:00Z,30.2583,-88.2131,4.359,6.66,11111222 
DISL,ioos:station:DISL:KATA:1,2019-08-09T10:30:00Z,30.2583,-88.2131,4.338,6.74,11111222 
DISL,ioos:station:DISL:KATA:1,2019-08-09T11:30:00Z,30.2583,-88.2131,4.282,6.43,11111222 
DISL,ioos:station:DISL:KATA:1,2019-08-09T12:30:00Z,30.2583,-88.2131,4.281,6.09,11111222 
DISL,ioos:station:DISL:KATA:1,2019-08-09T13:30:00Z,30.2583,-88.2131,4.302,5.66,11111222 
DISL,ioos:station:DISL:KATA:1,2019-08-09T14:30:00Z,30.2583,-88.2131,4.267,5.92,11111222 
DISL,ioos:station:DISL:KATA:1,2019-08-09T15:30:00Z,30.2583,-88.2131,4.186,6.15,11111222 
DISL,ioos:station:DISL:KATA:1,2019-08-09T16:30:00Z,30.2583,-88.2131,4.099,6.34,11111222 
DISL,ioos:station:DISL:KATA:1,2019-08-09T17:30:00Z,30.2583,-88.2131,4.025,6.23,11111222 
DISL,ioos:station:DISL:KATA:1,2019-08-09T18:30:00Z,30.2583,-88.2131,3.965,6.88,11111222 
DISL,ioos:station:DISL:KATA:1,2019-08-09T19:30:00Z,30.2583,-88.2131,3.927,7.13,11111222 
DISL,ioos:station:DISL:KATA:1,2019-08-09T20:30:00Z,30.2583,-88.2131,3.909,7.02,11111222 
DISL,ioos:station:DISL:KATA:1,2019-08-09T21:30:00Z,30.2583,-88.2131,3.897,7.0,11111222 
DISL,ioos:station:DISL:KATA:1,2019-08-09T22:30:00Z,30.2583,-88.2131,3.838,7.19,11111222 
DISL,ioos:station:DISL:KATA:1,2019-08-09T23:30:00Z,30.2583,-88.2131,3.829,6.99,11111222 
DISL,ioos:station:DISL:KATA:1,2019-08-10T00:30:00Z,30.2583,-88.2131,3.855,6.76,11111222 
DISL,ioos:station:DISL:KATA:1,2019-08-10T01:30:00Z,30.2583,-88.2131,3.947,6.38,11111222 
DISL,ioos:station:DISL:KATA:1,2019-08-10T02:30:00Z,30.2583,-88.2131,3.974,6.41,11111222 
DISL,ioos:station:DISL:KATA:1,2019-08-10T03:30:00Z,30.2583,-88.2131,4.01,6.93,11111222 
DISL,ioos:station:DISL:KATA:1,2019-08-10T04:30:00Z,30.2583,-88.2131,4.063,6.6,11111222 
DISL,ioos:station:DISL:KATA:1,2019-08-10T05:30:00Z,30.2583,-88.2131,4.069,6.49,11111222 
DISL,ioos:station:DISL:KATA:1,2019-08-10T06:30:00Z,30.2583,-88.2131,4.123,6.67,11111222 
DISL,ioos:station:DISL:KATA:1,2019-08-10T07:30:00Z,30.2583,-88.2131,4.228,6.51,11111222 
DISL,ioos:station:DISL:KATA:1,2019-08-10T08:30:00Z,30.2583,-88.2131,4.327,6.61,11111222 
DISL,ioos:station:DISL:KATA:1,2019-08-10T09:30:00Z,30.2583,-88.2131,4.373,6.5,11111222 
DISL,ioos:station:DISL:KATA:1,2019-08-10T10:30:00Z,30.2583,-88.2131,4.375,6.25,11111222 
DISL,ioos:station:DISL:KATA:1,2019-08-10T11:30:00Z,30.2583,-88.2131,4.334,6.57,11111222 
DISL,ioos:station:DISL:KATA:1,2019-08-10T12:30:00Z,30.2583,-88.2131,4.292,6.31,11111222 
DISL,ioos:station:DISL:KATA:1,2019-08-10T13:30:00Z,30.2583,-88.2131,4.273,5.29,11111222 
DISL,ioos:station:DISL:KATA:1,2019-08-10T14:30:00Z,30.2583,-88.2131,4.265,5.37,11111222 
DISL,ioos:station:DISL:KATA:1,2019-08-10T15:30:00Z,30.2583,-88.2131,4.225,5.84,11111222 
DISL,ioos:station:DISL:KATA:1,2019-08-10T16:30:00Z,30.2583,-88.2131,4.149,5.84,11111222 
DISL,ioos:station:DISL:KATA:1,2019-08-10T17:30:00Z,30.2583,-88.2131,4.059,6.55,11111222 
DISL,ioos:station:DISL:KATA:1,2019-08-10T18:30:00Z,30.2583,-88.2131,3.996,6.69,11111222 
DISL,ioos:station:DISL:KATA:1,2019-08-10T19:30:00Z,30.2583,-88.2131,3.976,7.18,11111222 
DISL,ioos:station:DISL:KATA:1,2019-08-10T20:30:00Z,30.2583,-88.2131,3.819,7.21,11111222 
DISL,ioos:station:DISL:KATA:1,2019-08-10T21:30:00Z,30.2583,-88.2131,3.819,7.46,11111222 
DISL,ioos:station:DISL:KATA:1,2019-08-10T22:30:00Z,30.2583,-88.2131,3.831,7.39,11111222 
DISL,ioos:station:DISL:KATA:1,2019-08-10T23:30:00Z,30.2583,-88.2131,3.82,7.19,11111222 
DISL,ioos:station:DISL:KATA:1,2019-08-11T00:30:00Z,30.2583,-88.2131,3.793,7.4,11111222 
DISL,ioos:station:DISL:KATA:1,2019-08-11T01:30:00Z,30.2583,-88.2131,3.807,7.18,11111222 
DISL,ioos:station:DISL:KATA:1,2019-08-11T02:30:00Z,30.2583,-88.2131,3.828,7.09,11111222 
DISL,ioos:station:DISL:KATA:1,2019-08-11T03:30:00Z,30.2583,-88.2131,3.898,6.56,11111222 
DISL,ioos:station:DISL:KATA:1,2019-08-11T04:30:00Z,30.2583,-88.2131,3.979,6.64,11111222 
DISL,ioos:station:DISL:KATA:1,2019-08-11T05:30:00Z,30.2583,-88.2131,4.076,6.62,11111222 
DISL,ioos:station:DISL:KATA:1,2019-08-11T06:30:00Z,30.2583,-88.2131,4.154,6.7,11111222 
DISL,ioos:station:DISL:KATA:1,2019-08-11T07:30:00Z,30.2583,-88.2131,4.218,6.59,11111222 
DISL,ioos:station:DISL:KATA:1,2019-08-11T08:30:00Z,30.2583,-88.2131,4.266,6.53,11111222 
DISL,ioos:station:DISL:KATA:1,2019-08-11T09:30:00Z,30.2583,-88.2131,4.312,6.33,11111222 
DISL,ioos:station:DISL:KATA:1,2019-08-11T10:30:00Z,30.2583,-88.2131,4.346,5.95,11111222 
DISL,ioos:station:DISL:KATA:1,2019-08-11T11:30:00Z,30.2583,-88.2131,4.378,6.07,11111222 
DISL,ioos:station:DISL:KATA:1,2019-08-11T12:30:00Z,30.2583,-88.2131,4.372,5.73,11111222 
DISL,ioos:station:DISL:KATA:1,2019-08-11T13:30:00Z,30.2583,-88.2131,4.338,5.54,11111222 
DISL,ioos:station:DISL:KATA:1,2019-08-11T14:30:00Z,30.2583,-88.2131,4.279,5.46,11111222 
DISL,ioos:station:DISL:KATA:1,2019-08-11T15:30:00Z,30.2583,-88.2131,4.245,5.59,11111222 
DISL,ioos:station:DISL:KATA:1,2019-08-11T16:30:00Z,30.2583,-88.2131,4.231,5.64,11111222 
DISL,ioos:station:DISL:KATA:1,2019-08-11T17:30:00Z,30.2583,-88.2131,4.109,5.87,11111222 
DISL,ioos:station:DISL:KATA:1,2019-08-11T18:30:00Z,30.2583,-88.2131,4.059,6.57,11111222 
DISL,ioos:station:DISL:KATA:1,2019-08-11T19:30:00Z,30.2583,-88.2131,3.987,6.93,11111222 
DISL,ioos:station:DISL:KATA:1,2019-08-11T20:30:00Z,30.2583,-88.2131,3.867,6.97,11111222 
DISL,ioos:station:DISL:KATA:1,2019-08-11T21:30:00Z,30.2583,-88.2131,3.736,6.71,11111222 
DISL,ioos:station:DISL:KATA:1,2019-08-11T22:30:00Z,30.2583,-88.2131,3.753,6.78,11111222 
DISL,ioos:station:DISL:KATA:1,2019-08-11T23:30:00Z,30.2583,-88.2131,3.774,6.64,11111222 
DISL,ioos:station:DISL:KATA:1,2019-08-12T00:30:00Z,30.2583,-88.2131,3.763,6.86,11111222 
DISL,ioos:station:DISL:KATA:1,2019-08-12T01:30:00Z,30.2583,-88.2131,3.769,6.89,11111222 
DISL,ioos:station:DISL:KATA:1,2019-08-12T02:30:00Z,30.2583,-88.2131,3.821,6.73,11111222 
DISL,ioos:station:DISL:KATA:1,2019-08-12T03:30:00Z,30.2583,-88.2131,3.86,6.47,11111222 
DISL,ioos:station:DISL:KATA:1,2019-08-12T04:30:00Z,30.2583,-88.2131,3.904,6.22,11111222 